[[{"header":{"parameterUnit":"m.s-1","parameterCategory":1,"la1":30.2991,"la2":30.254,"lo1":-89.0895,"lo2":-89.0444,"dy":0.0017,"dx":0.0017,"nx":28,"ny":28,"refTime":"2023-10-16T21:00:00:Z","depth":0,"parameterNumber":2,"parameterNumberName":"U-component_of_WINDS"},"data":[0,0,0,0,0,0,0,0,0,0,0,0,0,0,0,0,0,0,0,0,0,0,0,0,0,0,0,0,0,0,0,0,0,0,0,0,0,0,0,0,0,0,0,0,0,0,0,0,0,0,0,0,0,0,0,0,0,0,0.3046,0.3046,0,0.3091,0.3091,0.3092,0.3144,0.3145,0.3145,0.3146,0.3192,0.3193,0.3193,0,0,0,0,0,0,0,0,0,0,0,0,0,0.3005,0.3006,0.3046,0.3046,0.3047,0.3091,0.3091,0.3092,0.3144,0.3145,0.3146,0.3146,0.3192,0.3193,0.3193,0,0,0,0,0,0,0,0,0,0,0,0,0,0.3034,0.3006,0.3046,0.3078,0.3081,0.3091,0.3091,0.3092,0.3143,0.3145,0.3146,0.3147,0.3192,0.3193,0.3193,0.3175,0,0,0.3196,0.3196,0,0,0,0,0,0,0,0,0.3032,0.3035,0.3073,0.3076,0.308,0.3113,0.3094,0.312,0.3143,0.312,0.3146,0.3147,0.3165,0.3168,0.3174,0.3177,0.3179,0.3196,0.3196,0.3197,0.3197,0,0,0,0,0,0,0,0.303,0.3034,0.3064,0.3073,0.3077,0.309,0.3096,0.3099,0.3135,0.3122,0.3126,0.313,0.3167,0.3173,0.3175,0.3179,0.3196,0.3197,0.3197,0.3197,0.3169,0.3168,0,0,0,0,0,0,0.3023,0.3032,0.3062,0.3065,0.3058,0.309,0.3096,0.3101,0.3135,0.3142,0.3129,0.3133,0.3171,0.3174,0.3177,0.3157,0.3197,0.3197,0.3198,0.3171,0.3169,0.3168,0,0,0,0,0,0,0.3022,0.3025,0.306,0.3049,0.3055,0.309,0.3095,0.3101,0.3107,0.3141,0.3148,0.3129,0.3172,0.3176,0.3175,0.316,0.3198,0.3198,0.3172,0.317,0.3168,0.3117,0,0,0,0,0,0,0.3021,0.3025,0.3018,0.3049,0.3055,0.3057,0.3094,0.3101,0.3108,0.3113,0.3142,0.3148,0.3173,0.3173,0.3176,0.3161,0.3199,0.3174,0.3171,0.3169,0.312,0.3114,0.3108,0,0,0,0,0,0.3019,0.3001,0.3017,0.302,0.3047,0.3056,0.306,0.3089,0.3107,0.31,0.3122,0.3147,0.3161,0.3173,0.3176,0.3161,0.3175,0.3172,0.3169,0.3123,0.3115,0.3109,0,0,0,0,0,0,0.2968,0.3006,0.3024,0.3016,0.3032,0.3065,0.3057,0.308,0.3091,0.3095,0.3131,0.3138,0.3132,0.3147,0.3159,0.3145,0.3172,0.3169,0.3136,0.3128,0.3122,0.3119,0.32,0,0,0,0,0,0.2955,0.2959,0.2993,0.2982,0.299,0.3022,0.3027,0.3048,0.3067,0.3074,0.3096,0.3113,0.3121,0.3126,0.3135,0.3123,0.313,0.3115,0.3109,0.3104,0.3101,0.3096,0.3089,0.3159,0.3159,0.3159,0,0,0.293,0.2952,0.2952,0.2973,0.2988,0.2991,0.3027,0.3029,0.3032,0.3074,0.3074,0.3091,0.3112,0.3105,0.3104,0.3118,0.3083,0.31,0.3096,0.3096,0.3092,0.3086,0.308,0.3157,0.3158,0.3158,0,0,0.2885,0.2902,0.2895,0.291,0.2933,0.2954,0.2952,0.2982,0.2994,0.2995,0.3027,0.3031,0.3044,0.3058,0.3067,0.3028,0.3052,0.303,0.2998,0.2993,0.2987,0.2983,0.2968,0.2963,0.3028,0.3028,0.3027,0,0.2851,0.2857,0.2889,0.2889,0.2897,0.2936,0.2929,0.2942,0.2966,0.2971,0.2987,0.3004,0.3022,0.3019,0.3009,0.3015,0.3014,0.3027,0.2985,0.2981,0.2977,0.2964,0.2959,0.3025,0.3025,0.3025,0.3026,0,0.2814,0.2817,0.2809,0.2832,0.2839,0.2836,0.2868,0.2871,0.2892,0.2912,0.2912,0.2934,0.2949,0.295,0.297,0.295,0.2958,0.2979,0.3006,0.2967,0.2955,0.2951,0.3021,0.3022,0.3023,0.3023,0,0,0.2738,0.2778,0.2774,0.2785,0.2813,0.2817,0.2815,0.283,0.2832,0.2848,0.2847,0.2858,0.2878,0.2888,0.291,0.2905,0.2873,0.2927,0.2928,0.2916,0.2851,0.2835,0.2829,0.2889,0.2888,0.2887,0.2849,0,0.2698,0.2697,0.2726,0.2718,0.2721,0.2758,0.2757,0.2774,0.2793,0.2799,0.282,0.2827,0.2852,0.2858,0.2855,0.2877,0.286,0.288,0.2889,0.2888,0.2881,0.2823,0.2805,0.2768,0.2845,0.2844,0.2844,0,0.2651,0.2664,0.2656,0.2684,0.2687,0.2685,0.2701,0.2706,0.2726,0.274,0.2751,0.2777,0.2778,0.2803,0.2805,0.2818,0.2823,0.2834,0.2834,0.2835,0.2863,0.2822,0.2757,0.2751,0.2837,0.2838,0.2838,0,0.2596,0.2611,0.2608,0.2616,0.265,0.2647,0.2661,0.2683,0.2689,0.2703,0.2708,0.2721,0.2728,0.2738,0.2767,0.2783,0.2765,0.2793,0.2776,0.2776,0.277,0.277,0.2705,0.2774,0.2775,0.2775,0.2775,0,0.2548,0.2541,0.2584,0.2582,0.2576,0.2609,0.2602,0.262,0.2639,0.2641,0.2674,0.2675,0.2713,0.2719,0.2741,0.2739,0.2742,0.2753,0.2759,0.275,0.2748,0.2753,0.2756,0.2773,0.2774,0.2774,0.2774,0,0.2485,0.2513,0.2512,0.2544,0.2552,0.2546,0.2573,0.2572,0.2593,0.2596,0.2598,0.2631,0.264,0.2669,0.2685,0.27,0.269,0.2702,0.2683,0.2687,0.2668,0.2669,0.2604,0.2597,0.2671,0.267,0.2669,0,0.2452,0.2448,0.2479,0.2483,0.2495,0.2501,0.2508,0.2541,0.2547,0.257,0.2567,0.2578,0.2588,0.26,0.2625,0.2638,0.265,0.2626,0.2652,0.2643,0.2649,0.2648,0.2648,0.262,0.2619,0.2618,0.2618,0,0.2391,0.2406,0.2414,0.2428,0.2435,0.2448,0.2462,0.2463,0.25,0.2505,0.2514,0.2522,0.2539,0.2549,0.2566,0.258,0.2605,0.2609,0.2606,0.2596,0.2585,0.2591,0.2668,0.2611,0.2611,0.2612,0.2612,0.2612,0.2342,0.234,0.2362,0.237,0.2385,0.2397,0.2398,0.242,0.2428,0.2443,0.2462,0.2469,0.249,0.2514,0.2527,0.2532,0.2546,0.2541,0.254,0.2538,0.2533,0.2585,0.2536,0.2536,0.2536,0.2536,0.2537,0,0.2283,0.2298,0.2306,0.2325,0.2332,0.2355,0.2372,0.2376,0.2381,0.2398,0.2408,0.2418,0.2429,0.2455,0.2468,0.2468,0.2479,0.247,0.247,0.2473,0.2521,0.2522,0.246,0.246,0.246,0.246,0.246,0.246,0.2252,0.225,0.2267,0.2272,0.2288,0.2294,0.2302,0.2314,0.2328,0.2338,0.2347,0.2364,0.2384,0.2399,0.241,0.2417,0.242,0.2407,0.2418,0.2462,0.2469,0.2476,0.2478,0.2408,0.2407,0.237,0.2369,0.2369]},{"header":{"parameterUnit":"m.s-1","parameterCategory":1,"la1":30.2991,"la2":30.254,"lo1":-89.0895,"lo2":-89.0444,"dy":0.0017,"dx":0.0017,"nx":28,"ny":28,"refTime":"2023-10-16T21:00:00:Z","depth":0,"parameterNumber":3,"parameterNumberName":"V-component_of_WINDS"},"data":[0,0,0,0,0,0,0,0,0,0,0,0,0,0,0,0,0,0,0,0,0,0,0,0,0,0,0,0,0,0,0,0,0,0,0,0,0,0,0,0,0,0,0,0,0,0,0,0,0,0,0,0,0,0,0,0,0,0,-0.2338,-0.2338,0,-0.2375,-0.2375,-0.2375,-0.2382,-0.2381,-0.2381,-0.2381,-0.2419,-0.242,-0.2422,0,0,0,0,0,0,0,0,0,0,0,0,0,-0.2274,-0.2275,-0.2338,-0.2338,-0.2338,-0.2374,-0.2375,-0.2375,-0.2382,-0.2381,-0.2381,-0.238,-0.2419,-0.242,-0.2422,0,0,0,0,0,0,0,0,0,0,0,0,0,-0.2305,-0.2275,-0.2337,-0.2346,-0.2347,-0.2374,-0.2375,-0.2376,-0.2382,-0.2381,-0.2381,-0.238,-0.2418,-0.242,-0.2422,-0.2444,0,0,-0.2428,-0.2429,0,0,0,0,0,0,0,0,-0.2303,-0.2307,-0.2344,-0.2345,-0.2347,-0.2373,-0.2367,-0.2398,-0.2382,-0.2369,-0.2381,-0.238,-0.2404,-0.2407,-0.2415,-0.2445,-0.2447,-0.2428,-0.2429,-0.243,-0.2431,0,0,0,0,0,0,0,-0.2301,-0.2306,-0.2352,-0.2345,-0.2346,-0.2348,-0.2352,-0.2373,-0.2389,-0.237,-0.237,-0.2374,-0.2405,-0.2413,-0.2416,-0.2448,-0.2428,-0.243,-0.2431,-0.2432,-0.25,-0.25,0,0,0,0,0,0,-0.2297,-0.2304,-0.2351,-0.2353,-0.2323,-0.235,-0.2354,-0.2365,-0.2388,-0.2391,-0.2375,-0.2375,-0.241,-0.2414,-0.2417,-0.2446,-0.243,-0.2432,-0.2433,-0.2499,-0.25,-0.25,0,0,0,0,0,0,-0.2296,-0.2301,-0.235,-0.2329,-0.2335,-0.2351,-0.2363,-0.2366,-0.2375,-0.2392,-0.2395,-0.2381,-0.241,-0.2415,-0.2438,-0.2447,-0.2433,-0.2435,-0.2498,-0.2499,-0.25,-0.2502,0,0,0,0,0,0,-0.2294,-0.2301,-0.2309,-0.2329,-0.2336,-0.2369,-0.2364,-0.2367,-0.2378,-0.2378,-0.2398,-0.2401,-0.241,-0.2435,-0.2439,-0.245,-0.2436,-0.2497,-0.2499,-0.25,-0.2501,-0.2503,-0.2505,0,0,0,0,0,-0.2292,-0.2308,-0.2309,-0.2315,-0.2347,-0.2369,-0.2373,-0.2383,-0.2379,-0.2387,-0.2399,-0.2401,-0.2445,-0.2437,-0.2442,-0.2454,-0.2497,-0.2498,-0.25,-0.2501,-0.2503,-0.2505,0,0,0,0,0,0,-0.2288,-0.231,-0.2312,-0.2335,-0.235,-0.237,-0.2381,-0.2384,-0.2401,-0.24,-0.2411,-0.2416,-0.2438,-0.2448,-0.2438,-0.2477,-0.2471,-0.2473,-0.247,-0.2472,-0.2473,-0.2471,-0.2438,0,0,0,0,0,-0.229,-0.2306,-0.2325,-0.2343,-0.2351,-0.2365,-0.2375,-0.2381,-0.2397,-0.2403,-0.2416,-0.2432,-0.245,-0.2461,-0.2478,-0.2502,-0.2508,-0.2513,-0.2515,-0.2516,-0.2518,-0.2534,-0.2537,-0.2505,-0.2505,-0.2505,0,0,-0.2294,-0.2308,-0.2318,-0.2343,-0.2355,-0.2373,-0.237,-0.2388,-0.2401,-0.2406,-0.2429,-0.2439,-0.2457,-0.2481,-0.2493,-0.249,-0.2528,-0.2518,-0.2518,-0.252,-0.2536,-0.2539,-0.2541,-0.2506,-0.2506,-0.2506,0,0,-0.2311,-0.2322,-0.234,-0.2353,-0.2371,-0.2381,-0.2385,-0.2404,-0.2412,-0.2435,-0.2439,-0.2455,-0.2485,-0.2498,-0.2509,-0.2532,-0.2535,-0.2537,-0.2546,-0.2561,-0.2563,-0.2566,-0.2576,-0.2579,-0.2539,-0.2539,-0.2539,0,-0.2314,-0.2339,-0.2348,-0.2367,-0.2378,-0.2384,-0.2402,-0.2414,-0.2437,-0.2446,-0.2442,-0.2481,-0.2494,-0.2522,-0.2528,-0.2535,-0.2542,-0.2535,-0.2562,-0.2565,-0.2567,-0.2577,-0.258,-0.2539,-0.2539,-0.2539,-0.2539,0,-0.2343,-0.2361,-0.2372,-0.2396,-0.2408,-0.2426,-0.2439,-0.2451,-0.2456,-0.2466,-0.249,-0.2506,-0.2527,-0.2534,-0.2538,-0.2563,-0.2561,-0.256,-0.2554,-0.257,-0.2579,-0.2583,-0.254,-0.254,-0.254,-0.254,0,0,-0.2358,-0.2387,-0.2391,-0.2402,-0.2424,-0.2438,-0.2457,-0.2478,-0.2489,-0.2505,-0.2522,-0.2548,-0.2547,-0.2559,-0.2566,-0.2578,-0.2598,-0.2576,-0.2577,-0.2581,-0.2628,-0.263,-0.2634,-0.26,-0.26,-0.2601,-0.2627,0,-0.2378,-0.2412,-0.2422,-0.2451,-0.2468,-0.2474,-0.2491,-0.2507,-0.2516,-0.2533,-0.2544,-0.2563,-0.256,-0.2567,-0.258,-0.2593,-0.2608,-0.2591,-0.2617,-0.2618,-0.2614,-0.2639,-0.2641,-0.2665,-0.2631,-0.2631,-0.2632,0,-0.2406,-0.2424,-0.2455,-0.2476,-0.2484,-0.2498,-0.2519,-0.2535,-0.2553,-0.2559,-0.2574,-0.2579,-0.26,-0.2593,-0.2623,-0.2611,-0.2622,-0.263,-0.2631,-0.2635,-0.2627,-0.2645,-0.2673,-0.2677,-0.2637,-0.2637,-0.2636,0,-0.2416,-0.2448,-0.2471,-0.248,-0.2504,-0.2515,-0.2526,-0.2544,-0.2556,-0.2574,-0.2583,-0.2603,-0.2614,-0.263,-0.2641,-0.2635,-0.2671,-0.2664,-0.2678,-0.2678,-0.2687,-0.2686,-0.2718,-0.2691,-0.2691,-0.2691,-0.2691,0,-0.2439,-0.2458,-0.2476,-0.249,-0.2512,-0.2523,-0.2545,-0.2556,-0.2572,-0.2589,-0.2595,-0.2611,-0.2624,-0.2642,-0.2651,-0.2676,-0.268,-0.2687,-0.2689,-0.2687,-0.2687,-0.2696,-0.2695,-0.2692,-0.2691,-0.2691,-0.2691,0,-0.2454,-0.2467,-0.2493,-0.2514,-0.252,-0.2536,-0.2555,-0.2569,-0.2579,-0.2601,-0.2607,-0.2624,-0.2645,-0.2658,-0.2685,-0.2691,-0.2719,-0.272,-0.2713,-0.2715,-0.2729,-0.2728,-0.2769,-0.2776,-0.2742,-0.2743,-0.2743,0,-0.2468,-0.2484,-0.2507,-0.2519,-0.253,-0.255,-0.2563,-0.2574,-0.2588,-0.2611,-0.2623,-0.2645,-0.2664,-0.2698,-0.2713,-0.2734,-0.2737,-0.275,-0.274,-0.2738,-0.2739,-0.2739,-0.2742,-0.2752,-0.2752,-0.2752,-0.2753,0,-0.2493,-0.2499,-0.2517,-0.2539,-0.2555,-0.2572,-0.2589,-0.2599,-0.2613,-0.2628,-0.2651,-0.2665,-0.2694,-0.2717,-0.2739,-0.2751,-0.2755,-0.2755,-0.276,-0.2759,-0.2756,-0.276,-0.272,-0.2755,-0.2755,-0.2754,-0.2754,-0.2754,-0.2509,-0.2524,-0.2543,-0.2564,-0.2579,-0.2595,-0.2611,-0.2623,-0.2642,-0.2667,-0.2672,-0.2697,-0.2716,-0.2747,-0.2759,-0.2779,-0.2777,-0.2783,-0.2785,-0.2787,-0.2789,-0.2751,-0.2783,-0.2783,-0.2783,-0.2783,-0.2783,0,-0.2536,-0.2549,-0.2568,-0.2592,-0.261,-0.2611,-0.2631,-0.2645,-0.2667,-0.2684,-0.2703,-0.273,-0.2752,-0.2769,-0.2792,-0.2805,-0.2807,-0.2811,-0.2811,-0.2814,-0.2788,-0.2783,-0.2808,-0.2808,-0.2808,-0.2808,-0.2808,-0.2808,-0.2551,-0.2577,-0.2585,-0.2618,-0.2631,-0.2655,-0.2667,-0.2682,-0.2697,-0.2727,-0.2746,-0.2756,-0.2774,-0.2799,-0.282,-0.2824,-0.2833,-0.2837,-0.2842,-0.2818,-0.2815,-0.2813,-0.2808,-0.2838,-0.2838,-0.2866,-0.2866,-0.2866]}]]